DELTA 1 DEB, 42635

Orbit data source: Space-Track

DELTA 1 DEB, 42635 is space debris in SSO originally from a launch on Thu, 12 Jun 1975 UTC launched from the Air Force Western Test Range (AFWTR). Debris objects in space refer to the collection of defunct objects orbiting the Earth. Examples of debris include non-operational satellites, rocket bodies, and fragments generated from explosions, collisions, or faulty payload assembly.

Loading next visibility...
Identifier
42635, 1975-052LU
Orbit
SSO
Country
Flag of USUS
Related business
Manufacturer
Unknown
Mission
Spacecraft
Bus & Motor
Unknown
Mass
Unknown
Launch date (UTC)
1975-06-12 (50 years ago)
Launch vehicle
Unknown
Launch site
Air Force Western Test Range (AFWTR)
Object type
Payload
Rocket body
Debris
Shape & HBR
Unknown shape, 0.1 m
Radar Cross Section
Small (<0.1 m²)

Expand to show TLE details & history
Last TLE update: 1 day ago

TLE from 1 day ago
0 DELTA 1 DEB
1 42635U 75052LU  25286.55322532  .00000210  00000-0  35690-3 0  9998
2 42635  99.7700 197.7056 0044226 178.1840 356.0798 13.56725745588561
Epoch: 2025-10-13T13:16Z
TLE epoch observation values (Epoch: 2025-10-13T13:16:38.667Z)
Latitude
5.6084°
Longitude
157.15397°
Altitude
1,017.086 km
Speed
7.36 km/s
True Right ascension
01h 14m 40s
True Declination
5° 34' 34"
Sunlit
Object was in full shadow at epoch
Visualization orbit readout
Latitude
Unknown
Longitude
Unknown
Altitude
Unknown
Speed
Unknown
Apparent Right ascension
Unknown
Apparent Declination
Unknown
Sunlit
N/A
Visualization observer readout
Local Sidereal Time
13:12:02
Azimuth
Unknown
Elevation
Unknown
Doppler factor
Unknown
Orbital elements
Apogee altitude
1,077.741 km
Perigee altitude
1,012.082 km
Semi-major axis
7,423.048 km
Eccentricity
0.00442
Inclination
99.77°
RAAN
197.7056°
Arg. of periapsis
178.184°
True anomaly
356.04496°
Mean anomaly
356.0798°
Eccentric anomaly
356.0624°
Mean motion
3.39367 °/min
Orbital period
106.08 mins
BSTAR
0.0003569
Loading maneuver chart data...
Computing Atmospheric mass density...

Documentation

Showing up to 5 results
|